Location: Oshawa
(43.9000°N, 78.8670°W)
Time: 10:48:35
(UTC-05:00)

Transit 2A Rocket - Visible Passes

Search period start: 20 February 2018 00:00
Search period end: 02 March 2018 00:00
Orbit: 587 x 917 km, 66.7° (Epoch: 19 February)

Date Brightness Start Highest point End Pass type
(mag) Time Alt. Az. Time Alt. Az. Time Alt. Az.
20 Feb 6.2 18:30:14 10° NW 18:35:04 43° WSW 18:39:28 10° S visible
22 Feb 7.8 18:49:08 10° WNW 18:52:12 16° WSW 18:55:07 10° SW visible
25 Feb 8.5 06:17:48 10° SE 06:21:02 15° ESE 06:24:14 10° ENE visible
25 Feb 8.5 18:26:09 10° W 18:27:07 11° W 18:28:05 10° WSW visible
28 Feb 8.1 05:51:39 10° SSE 05:56:04 21° ESE 06:00:22 10° ENE visible
01 Mar 8.4 05:11:42 10° SE 05:13:58 12° ESE 05:16:14 10° E visible
